Santo Domingo, Dominican Republic

7:34 AM AST on February 27, 2017 (GMT -0400)
Las Americas International Airport

Weather History for MDSD - October, 2012

Change the Weather History Date:

Saturday, October 13, 2012

  Actual Average Record
Temperature  
Mean Temperature 84 °F -  
Max Temperature 93 °F 88 °F 93 °F (2012)
Min Temperature 75 °F 71 °F 71 °F (2010)
Cooling Degree Days 19    
Growing Degree Days 34 (Base 50)    
Moisture  
Dew Point 74 °F    
Average Humidity 80    
Maximum Humidity 94    
Minimum Humidity 51    
Precipitation  
Precipitation 0.00 in 0.17 in - ()
Sea Level Pressure  
Sea Level Pressure 29.82 in    
Wind  
Wind Speed 6 mph ()    
Max Wind Speed 14 mph    
Max Gust Speed -    
Visibility 6.7 miles    
Events      
Averages and records for this station are not official NWS values.
T = Trace of Precipitation, MM = Missing Value Source: Averaged Metar Reports

Daily Weather History Graph

Daily Weather History Graph

Search for Another Location

Airport or City:

Trip Planner

Search our weather history database for the weather conditions in past years. The results will help you decide how hot, cold, wet, or windy it might be!

Date:

Astronomy

Oct. 13, 2012 Rise Set
Actual Time 6:32 AM AST 6:17 PM AST
Civil Twilight 6:10 AM AST 6:39 PM AST
Nautical Twilight 5:44 AM AST 7:04 PM AST
Astronomical Twilight 5:19 AM AST 7:29 PM AST
Moon 4:31 AM AST (10/13) 4:50 PM AST (10/13)
Length of Visible Light 12h 29m
Length of Day
11h 45m
Waning Crescent, 5% of the Moon is Illuminated
Oct 13
Waning Crescent
Oct 15
New
Oct 21
First Quarter
Oct 29
Full
Nov 6
Last Quarter

Hourly Weather History & Observations

Time (AST) Temp. Heat Index Dew Point Humidity Pressure Visibility Wind Dir Wind Speed Gust Speed Precip Events Conditions
12:00 AM 75.2 °F - 71.6 °F 89% 29.89 in 6.2 mi Variable 3.5 mph - N/A   Partly Cloudy
1:00 AM 75.2 °F - 71.6 °F 89% 29.86 in 6.2 mi Variable 3.5 mph - N/A   Partly Cloudy
2:00 AM 75.2 °F - 73.4 °F 94% 29.86 in 6.2 mi North 5.8 mph - N/A   Scattered Clouds
3:00 AM 75.2 °F - 73.4 °F 94% 29.86 in 6.2 mi North 4.6 mph - N/A   Scattered Clouds
4:00 AM 75.2 °F - 73.4 °F 94% 29.80 in 6.2 mi North 6.9 mph - N/A   Partly Cloudy
5:00 AM 75 °F - 73 °F 92% 29.84 in 10 mi North 6.7 mph - -   Scattered Clouds
5:00 AM 75.2 °F - 73.4 °F 94% 29.83 in 6.2 mi North 5.8 mph - N/A   Partly Cloudy
6:00 AM 75.2 °F - 73.4 °F 94% 29.83 in 6.2 mi NNE 6.9 mph - N/A   Partly Cloudy
7:00 AM 75.2 °F - 71.6 °F 89% 29.83 in 6.2 mi NNE 6.9 mph - N/A   Partly Cloudy
8:00 AM 86 °F - 76 °F 65% 29.87 in 10 mi NNE 11.2 mph - -   Widespread Dust
8:00 AM 77.0 °F - 71.6 °F 83% 29.86 in 6.2 mi North 6.9 mph - N/A   Partly Cloudy
9:00 AM 80.6 °F 85.4 °F 73.4 °F 79% 29.89 in 6.2 mi North 9.2 mph - N/A   Partly Cloudy
10:00 AM 84.2 °F 94.1 °F 77.0 °F 79% 29.86 in 6.2 mi NNE 9.2 mph - N/A   Partly Cloudy
11:00 AM 86.0 °F 95.1 °F 75.2 °F 70% 29.86 in 6.2 mi NNE 10.4 mph - N/A   Mostly Cloudy
12:00 PM 86.0 °F 93.4 °F 73.4 °F 66% 29.83 in 6.2 mi NNE 9.2 mph - N/A   Mostly Cloudy
1:00 PM 87.8 °F 95.6 °F 73.4 °F 62% 29.80 in 6.2 mi NNE 10.4 mph - N/A   Mostly Cloudy
2:00 PM 89 °F - 73 °F 51% 29.80 in 9 mi NE 11.2 mph - -   Widespread Dust
2:00 PM 89.6 °F 98.2 °F 73.4 °F 59% 29.80 in 6.2 mi NE 10.4 mph - N/A   Mostly Cloudy
2:04 PM - - - N/A% 29.77 in 5.0 mi NNE 13.8 mph - N/A   Mostly Cloudy
2:18 PM - - - N/A% 29.77 in 6.2 mi NNE 5.8 mph - N/A   Mostly Cloudy
3:00 PM 89.6 °F 98.2 °F 73.4 °F 59% 29.77 in 6.2 mi NNE 10.4 mph - N/A   Mostly Cloudy
4:00 PM 87.8 °F 95.6 °F 73.4 °F 62% 29.74 in 6.2 mi NNE 12.7 mph - N/A   Mostly Cloudy
5:00 PM 86.0 °F 96.9 °F 77.0 °F 74% 29.74 in 6.2 mi NNE 10.4 mph - N/A   Scattered Clouds
6:00 PM 84.2 °F 94.1 °F 77.0 °F 79% 29.77 in 6.2 mi NE 8.1 mph - N/A   Scattered Clouds
7:00 PM 82.4 °F 89.5 °F 75.2 °F 79% 29.77 in 6.2 mi NE 8.1 mph - N/A   Scattered Clouds
8:00 PM 80 °F - 75 °F 81% 29.81 in 10 mi North 6.7 mph - -   Partly Cloudy
8:00 PM 80.6 °F 86.2 °F 75.2 °F 84% 29.80 in 6.2 mi North 5.8 mph - N/A   Scattered Clouds
9:00 PM 78.8 °F - 75.2 °F 89% 29.83 in 6.2 mi North 5.8 mph - N/A   Scattered Clouds
10:00 PM 78.8 °F - 77.0 °F 94% 29.83 in 6.2 mi North 5.8 mph - N/A   Scattered Clouds
11:00 PM 79 °F - 74 °F 80% 29.80 in 10 mi North 4.5 mph - -   Mostly Cloudy
11:00 PM 78.8 °F - 75.2 °F 89% 29.83 in 6.2 mi North 5.8 mph - N/A   Partly Cloudy